Voltar ao catálogo

STARLINK-11350

AtivoComunicaçõesVLEO
NORAD 61540·PAYLOAD·🇺🇸 United States

Lançado Oct 15, 2024 de Vandenberg Space Force Base

Loading…

Próximas Passagens (próximas 24 horas)

TLE

AtualizadoSource: CelesTrak SupGP

Época: Sep 14, 2026, 22:38 UTC

1 61540C 24184J   26257.94354167 -.00004868  00000+0 -40079-4 0  2574
2 61540  53.1565  22.9420 0001126  82.8016  31.1211 15.69723553    13

Acompanhe STARLINK-11350 em tempo real com AllMySat

Download on the App Store